OPS 4682 DEB, 38440

Orbit data source: Space-Track

OPS 4682 DEB, 38440 is space debris in LEO originally from a launch on Sat, 03 Apr 1965 UTC launched from the Air Force Western Test Range (AFWTR). Debris objects in space refer to the collection of defunct objects orbiting the Earth. Examples of debris include non-operational satellites, rocket bodies, and fragments generated from explosions, collisions, or faulty payload assembly.

Loading next visibility...
Identifier
38440, 1965-027EV
Orbit
LEO
Country
Flag of USUS
Related business
Manufacturer
Unknown
Mission
Spacecraft
Bus & Motor
Unknown
Mass
Unknown
Launch date (UTC)
1965-04-03 (61 years ago)
Launch vehicle
Unknown
Launch site
Air Force Western Test Range (AFWTR)
Object type
Payload
Rocket body
Debris
Shape & HBR
Unknown shape, 0.1 m
Radar Cross Section
Small (<0.1 m²)

Expand to show TLE details & history
Last TLE update: 3 days ago

TLE from 3 days ago
0 OPS 4682 DEB
1 38440U 65027EV  26101.51766391  .00000816  00000-0  27215-2 0  9991
2 38440  90.2595  15.6923 0036192 199.7525 160.2197 12.98901236608300
Epoch: 2026-04-11T12:25Z
TLE epoch observation values (Epoch: 2026-04-11T12:25:26.161Z)
Latitude
-0.00004°
Longitude
-10.40253°
Altitude
1,295.328 km
Speed
7.196 km/s
True Right ascension
01h 02m 46s
True Declination
0° 00' 00"
Sunlit
Object was in daylight at epoch
Visualization orbit readout
Latitude
Unknown
Longitude
Unknown
Altitude
Unknown
Speed
Unknown
Apparent Right ascension
Unknown
Apparent Declination
Unknown
Sunlit
N/A
Visualization observer readout
Local Sidereal Time
03:37:18
Azimuth
Unknown
Elevation
Unknown
Doppler factor
Unknown
Orbital elements
Apogee altitude
1,291.18 km
Perigee altitude
1,235.867 km
Semi-major axis
7,641.66 km
Eccentricity
0.00362
Inclination
90.2595°
RAAN
15.6923°
Arg. of periapsis
199.7525°
True anomaly
160.35946°
Mean anomaly
160.2197°
Eccentric anomaly
160.28964°
Mean motion
3.24909 °/min
Orbital period
110.8 mins
BSTAR
0.0027215
Loading maneuver chart data...
Computing Atmospheric mass density...
Loading historical data...
Loading historical data...
Loading historical data...
Loading historical data...
Loading historical data...
Loading historical data...
Loading historical data...

Documentation

Showing up to 5 results
|